Other Public Products
Issued by NWS Grand Forks, ND

Home | Current Version | Previous Version | Graphics & Text | Print | Product List | Glossary On
Versions: 1 2 3 4 5 6 7 8 9 10 11 12 13 14 15 16 17 18 19 20 21 22 23 24 25 26 27 28 29 30 31 32 33 34 35 36 37 38 39 40 41 42 43 44 45 46 47 48 49 50
000
FPUS83 KFGF 252131
OPUFGF
PRAIRIE TO PINES WEATHER ROUNDUP
NATIONAL WEATHER SERVICE EASTERN NORTH DAKOTA/GRAND FORKS ND
300 PM CST THU DEC 25 2014

 **SATELLITE DATA USED TO AUGMENT SKY COVER AT AUTOMATED STATIONS**
 *****  WEATHER ACROSS EASTERN NORTH DAKOTA  *****

CITY           SKY/WX    TMP DP  RH WIND       PRES   REMARKS
GRAND FORKS    CLOUDY    28  22  78 N14       29.83R WCI  17
GRAND FORKS AF CLOUDY    28  27  93 N10       29.84R WCI  19
GRAND CITY NWS   N/A     27 N/A N/A N12         N/A  WCI  16
BUXTON           N/A     29  26  88 NW7         N/A  WCI  22
DEVILS LAKE    CLOUDY    27  21  80 N12       29.83R WCI  16
FARGO          CLOUDY    31  25  78 NW10      29.80R WCI  22
WAHPETON ARPT  CLOUDY    30  25  80 N9        29.81R WCI  22
$$

 *****  WEATHER ACROSS CENTRAL AND WESTERN NORTH DAKOTA  *****

CITY           SKY/WX    TMP DP  RH WIND       PRES   REMARKS
JAMESTOWN      CLOUDY    27  21  78 N15       29.80R WCI  15
BISMARCK       CLOUDY    27  22  81 NW13      29.85R WCI  16
MINOT          CLOUDY    26  20  77 W18       29.86R WCI  13
MINOT AFB      CLOUDY    27  25  93 NW18      29.85R WCI  13
GARRISON         N/A     27  22  81 NW18      29.83R WCI  14
WILLISTON      CLOUDY    25  18  74 NW15      29.92R WCI  13
DICKINSON      CLOUDY    25  19  78 NW15G24   29.83R WCI  13
HETTINGER      CLOUDY    25  19  78 N16       29.83R WCI  12
$$

 *****  OTHER OBSERVATIONS NORTHEAST NORTH DAKOTA  *****

CITY           SKY/WX    TMP DP  RH WIND       PRES   REMARKS
WALHALLA         N/A     27  27 100 N14       29.86R WCI  15
LANGDON        CLOUDY    25  21  86 N12       29.81R WCI  14
CAVALIER       CLOUDY    27  25  93 N13       29.85R WCI  16
GRAFTON        NOT AVBL
CANDO          CLOUDY    27  23  86 N12       29.84R WCI  16
FORT TOTTEN      N/A     26  22  84 NW6       29.95  WCI  19
ROLLA          CLOUDY    23  23 100 N13       29.82R WCI  11
RUGBY          MOCLDY    27  23  86 NW8       29.84R WCI  18
 ***** THE ABOVE OBSERVATIONS ARE NON NWS ARE NOT QUALITY
        CONTROLLED AND MAY MIS-REPORT RAIN FOR SNOW...
$$

 *****  OTHER OBSERVATIONS SOUTHEAST NORTH DAKOTA *****

CITY           SKY/WX    TMP DP  RH WIND       PRES   REMARKS
COOPERSTOWN    NOT AVBL
VALLEY CITY    MIX PCPN  27  27 100 N13G20    29.81R WCI  16
OAKES            N/A     28  27  93 N12       29.81R WCI  18
GWINNER        MOCLDY    30  28  93 CALM      29.83R
SHEYENNE NWR     N/A     29  24  81 N7        29.95  WCI  22
BUFFALO        NOT AVBL
WYNDMERE         N/A     28  27  93 N9          N/A  WCI  20
 ***** THE ABOVE OBSERVATIONS ARE NON NWS ARE NOT QUALITY
       CONTROLLED AND MAY MIS-REPORT RAIN FOR SNOW...
$$

  *****  WEATHER ACROSS NORTHERN MINNESOTA  *****

CITY           SKY/WX    TMP DP  RH WIND       PRES   REMARKS
FLAG ISLAND    CLOUDY    28  25  86 W8        29.75R WCI  20
WARROAD        CLOUDY    28  25  86 W6        29.78R WCI  22
ROSEAU         CLOUDY    28  23  80 W6        29.79R WCI  22
HALLOCK        CLOUDY    28  25  86 NW12      29.83R WCI  18
THF RVR FALLS  CLOUDY    27  21  80 NW12      29.81R WCI  16
HALSTAD          N/A     29  23  78 N10         N/A  WCI  20
FOSSTON        CLOUDY    27  23  86 NW9       29.79R WCI  17
BAUDETTE       CLOUDY    28  22  78 VRB5      29.76R WCI  23
WASKISH        CLOUDY    28  23  80 NW8       29.77R WCI  20
CROOKSTON      CLOUDY    27  23  86 N14       29.84R WCI  15
$$
  *****  WEATHER ACROSS CENTRAL AND WEST MINNESOTA  *****

CITY           SKY/WX    TMP DP  RH WIND       PRES   REMARKS
BEMIDJI        CLOUDY    29  23  79 W9        29.76R WCI  20
PARK RAPIDS    CLOUDY    30  24  78 NW7       29.74R WCI  23
WADENA         CLOUDY    28  25  86 N8        29.76R WCI  20
DETROIT LAKES  CLOUDY    28  28 100 NW8       29.79R WCI  20
MOORHEAD       CLOUDY    30  28  93 N8        29.82R WCI  23
FERGUS FALLS   CLOUDY    28  25  86 N13       29.82R WCI  18
ELBOW LAKE     CLOUDY    29  26  87 N10       29.77R WCI  20
MORRIS MN      PTSUNNY   30  27  86 N12       29.77R WCI  21
STAPLES        CLOUDY    28  25  86 N6        29.77R WCI  22
WHEATON        CLOUDY    27  25  93 N13       29.82R WCI  16
$$
  *****  WEATHER ELSEWHERE ACROSS MINNESOTA  *****

CITY           SKY/WX    TMP DP  RH WIND       PRES   REMARKS
DULUTH         CLOUDY    32  26  78 W12       29.73R WCI  23
INTRNTL FALLS  CLOUDY    30  25  81 NW8       29.73R WCI  22
ELY            CLOUDY    30  27  86 W5        29.73R
CLOQUET        CLOUDY    32  27  80 W5        29.75R
BRAINERD       CLOUDY    32  27  81 NW7       29.75R
HIBBING        CLOUDY    32  22  66 NW7       29.73R
ALEXANDRIA     CLOUDY    30  26  85 N12       29.75R WCI  20
SAINT CLOUD    CLOUDY    36  28  73 CALM      29.75R
MINNEAPOLIS    CLOUDY    35  28  75 SE5       29.76S
$$

  *****  WEATHER ACROSS SOUTH DAKOTA  *****

CITY           SKY/WX    TMP DP  RH WIND       PRES   REMARKS
SIOUX FALLS    CLOUDY    34  28  79 NE20      29.65S WCI  23
BROOKINGS      NOT AVBL
WATERTOWN      LGT SNOW  28  25  88 NE13      29.73R FOG     WCI  17
HURON          CLOUDY    29  25  85 N14       29.74R WCI  18
SISSETON         N/A     27  25  92 N15       29.78R WCI  15
ABERDEEN       PTSUNNY   29  23  78 N17G24    29.81R WCI  17
MITCHELL       CLOUDY    33  31  92 N21       29.69R WCI  21
PIERRE         CLOUDY    29  25  85 N20       29.75R WCI  16
MOBRIDGE       CLOUDY    31  25  78 N12       29.78R WCI  22
RAPID CITY     LGT SNOW  25  22  88 N21       29.77R VSB 1   WCI  11
$$

  *****  SOME WEATHER IN NEARBY STATES *****

CITY           SKY/WX    TMP DP  RH WIND       PRES   REMARKS
GLASGOW MT     CLOUDY    23  16  74 NW13      29.95R WCI  11
GREAT FALLS MT CLOUDY    24  21  88 SW3       29.92S
CHEYENNE WY    LGT SNOW  24  20  84 N13       29.55R VSB 3/4 WCI  12
SCOTTSBLUFF NE LGT SNOW  29  26  89 NE23      29.61R VSB 1   WCI  15
OMAHA NE       MOSUNNY   49  31  49 S22       29.60S
DES MOINES IA  MOSUNNY   50  32  50 S16       29.71F
DAVENPORT IA   SUNNY     47  30  51 S14       29.86F
CHICAGO IL     MOSUNNY   42  31  64 S12       29.96R
EAU CLAIRE WI  CLOUDY    34  28  79 SE3       29.79R
LA CROSSE WI   MOSUNNY   42  30  62 S8        29.80S
$$

  *****  SOME NATIONAL WEATHER *****

CITY           SKY/WX    TMP DP  RH WIND       PRES   REMARKS
LA GUARDIA NY  MOCLDY    51  28  41 W21G30    29.89R
RALEIGH NC     SUNNY     55  31  39 NW8       30.12R
ATLANTA GA     SUNNY     52  34  50 W7        30.19R
NEW ORLEANS LA PTSUNNY   56  39  53 NE7       30.21F
OKLAHOMA CITY  CLOUDY    58  24  27 S28G39    29.74F
ALBUQUERQUE NM MOSUNNY   51  13  21 VRB6      29.61F
SALT LAKE CITY LGT SNOW  29  28  96 N5        29.70R VSB 1   WCI  24
LOS ANGELES CA FAIR      62  25  24 N16G26    29.83F
BOISE ID       FAIR      36  23  59 NW21G30   29.93R
SEATTLE WA     FAIR      45  38  76 SW7       30.21R
$$

*** WEATHER ACROSS MANITOBA...SASKATCHEWAN AND ONTARIO ***
                ***ONTARIO***

CITY           SKY/WX    TMP DP  RH WIND       PRES   REMARKS
GERALDTON      MOCLDY    28  25  86 W6        29.62R WCI  22
THUNDER BAY    FLURRIES  34  30  86 W12G18    29.72R
SIOUX LOOKOUT  FLURRIES  28  27  93 W7        29.65  WCI  21
TORONTO        MOCLDY    39  30  70 W20G30    29.93R
BIG TROUT LK   FLURRIES  23  21  93 W6        29.62R WCI  16
PICKLE LAKE    FLURRIES  28  25  86 SE5       29.60R WCI  23
DRYDEN         CLOUDY    28  27  93 W8G18     29.69R WCI  20
KENORA         FLURRIES  27  25  93 NW6       29.71  WCI  20
$$
                *** MANITOBA***

CITY           SKY/WX    TMP DP  RH WIND       PRES   REMARKS
BRANDON        CLOUDY    25  19  80 NW13      29.85R WCI  13
DAUPHIN        FLURRIES  23  18  80 W9        29.88R WCI  13
ISLAND LAKE    FLURRIES  19  18  93 NW6       29.72R WCI  11
PILOT MOUND      N/A     23  21  93 NW9         N/A  WCI  13
THE PAS        FLURRIES   3   0  85 W18       29.92R WCI -17
THOMPSON       LGT SNOW   9   3  78 NW9       29.81R WCI  -5
WINNIPEG       CLOUDY    27  21  80 N16       29.83R WCI  14
CHURCHILL      LGT SNOW   5   1  85 NW16      29.80R WCI -14
GILLAM         FLURRIES  19  18  93 CALM      29.73R
$$
                ***SASKATCHEWAN***

CITY           SKY/WX    TMP DP  RH WIND       PRES   REMARKS
ESTEVAN        CLOUDY    21  18  86 NW17      29.89  WCI   7
KINDERSLEY     CLOUDY     9   3  78 W8        29.98S WCI  -4
LLOYDMINSTER   FLURRIES   9   5  85 W5        29.95S WCI   0
PRINCE ALBERT  MOCLDY    -2  -9  71 NW10      30.03R WCI -19
REGINA         MOSUNNY   10   5  79 NW16      29.95R WCI  -7
YORKTON        FLURRIES  12  10  92 W17       29.90R WCI  -5



USA.gov is the U.S. government's official web portal to all federal, state and local government web resources and services.